DW2640 Weather Reports


time (UTC)temp
C
wind
direction
speed
KPH
gust
KPH
rain 1hr
cm
rain 24hr
cm
rain mn
cm
humidity
%
barometer
mb
20260906194515 37 295 8.0 16.1 0.00 0.00 0.00 34 1009.8
20260906193013 37 234 9.7 19.3 0.00 0.00 0.00 35 1010.0
20260906191513 37 232 11.3 22.5 0.00 0.00 0.00 35 1010.2
20260906190012 37 253 4.8 14.5 0.00 0.00 0.00 35 1010.3
20260906184511 36 223 6.4 17.7 0.00 0.00 0.00 36 1010.6
20260906183026 36 173 1.6 16.1 0.00 0.00 0.00 37 1010.9
20260906181510 37 140 6.4 12.9 0.00 0.00 0.00 36 1011.0
20260906180012 37 146 11.3 19.3 0.00 0.00 0.00 36 1011.4
20260906174507 37 202 3.2 12.9 0.00 0.00 0.00 35 1011.8
20260906173008 37 300 6.4 11.3 0.00 0.00 0.00 38 1011.9
20260906171504 36 321 8.0 11.3 0.00 0.00 0.00 38 1012.2
20260906170100 36 60 1.6 11.3 0.00 0.00 0.00 39 1012.5
20260906164602 35 286 9.7 12.9 0.00 0.00 0.00 40 1012.4
20260906163058 35 265 9.7 14.5 0.00 0.00 0.00 41 1012.6
20260906161602 35 324 4.8 9.7 0.00 0.00 0.00 42 1012.6
20260906160055 35 279 0.0 9.7 0.00 0.00 0.00 44 1012.6
20260906154548 33 262 3.2 11.3 0.00 0.00 0.00 46 1012.6
20260906153047 33 324 6.4 11.3 0.00 0.00 0.00 47 1012.6
20260906151543 32 297 3.2 11.3 0.00 0.00 0.00 47 1012.5
20260906150053 32 297 3.2 9.7 0.00 0.00 0.00 50 1012.5
20260906144555 32 265 1.6 8.0 0.00 0.00 0.00 50 1012.5
20260906143038 32 174 1.6 8.0 0.00 0.00 0.00 53 1012.4
20260906141537 30 107 0.0 3.2 0.00 0.00 0.00 55 1012.5
20260906140028 30 107 3.2 6.4 0.00 0.00 0.00 60 1012.5
20260906134524 28 77 0.0 3.2 0.00 0.00 0.00 64 1012.3
20260906133023 27 77 0.0 3.2 0.00 0.00 0.00 66 1011.9
20260906131526 25 77 0.0 3.2 0.00 0.00 0.00 69 1011.7
20260906130033 25 77 0.0 1.6 0.00 0.00 0.00 70 1011.7
20260906124519 24 77 0.0 3.2 0.00 0.00 0.00 72 1011.5
20260906123017 23 77 1.6 3.2 0.00 0.00 0.00 73 1011.4
20260906121515 23 77 0.0 3.2 0.00 0.00 0.00 73 1011.2
20260906120013 23 77 0.0 3.2 0.00 0.00 0.00 73 1011.1
20260906114517 24 77 0.0 3.2 0.00 0.00 0.00 71 1010.8
20260906113011 24 77 0.0 3.2 0.00 0.00 0.00 71 1010.9
20260906111508 24 77 0.0 3.2 0.00 0.00 0.00 71 1010.7
20260906110010 24 77 1.6 3.2 0.00 0.00 0.00 71 1010.8
20260906104514 24 77 0.0 3.2 0.00 0.00 0.00 70 1010.6
20260906103005 24 77 0.0 3.2 0.00 0.00 0.00 69 1010.6
20260906101505 24 77 1.6 1.6 0.00 0.00 0.00 70 1010.4
20260906100004 24 77 1.6 3.2 0.00 0.00 0.00 70 1010.4
20260906094508 24 77 3.2 3.2 0.00 0.00 0.00 70 1010.4
20260906093000 25 77 3.2 6.4 0.00 0.00 0.00 69 1010.4
20260906091604 25 131 3.2 6.4 0.00 0.00 0.00 68 1010.3
20260906090057 25 131 0.0 1.6 0.00 0.00 0.00 67 1010.3
20260906084556 25 131 1.6 1.6 0.00 0.00 0.00 67 1010.3
20260906083055 25 131 0.0 3.2 0.00 0.00 0.00 66 1010.2
20260906081555 26 131 1.6 3.2 0.00 0.00 0.00 65 1010.1
20260906080053 26 131 0.0 3.2 0.00 0.00 0.00 63 1010.4
20260906074548 26 131 0.0 3.2 0.00 0.00 0.00 62 1010.1
20260906073046 26 131 0.0 3.2 0.00 0.00 0.00 62 1010.0
20260906071545 26 131 0.0 3.2 0.00 0.00 0.00 61 1010.1
20260906070044 27 131 0.0 3.2 0.00 0.00 0.00 61 1010.1
20260906064541 27 131 1.6 3.2 0.00 0.00 0.00 61 1010.2
20260906063039 27 131 0.0 3.2 0.00 0.00 0.00 62 1010.0
20260906061540 27 131 0.0 3.2 0.00 0.00 0.00 62 1010.1
20260906060034 27 131 0.0 3.2 0.00 0.00 0.00 61 1010.0
20260906054533 27 131 0.0 3.2 0.00 0.00 0.00 60 1010.1
20260906053031 27 131 1.6 4.8 0.00 0.00 0.00 60 1010.2
20260906051528 27 131 1.6 3.2 0.00 0.00 0.00 59 1010.1
20260906050025 28 138 0.0 3.2 0.00 0.00 0.00 58 1010.0
20260906044529 28 141 3.2 6.4 0.00 0.00 0.00 57 1010.2
20260906043024 28 200 1.6 6.4 0.00 0.00 0.00 56 1010.0
20260906041523 28 192 0.0 3.2 0.00 0.00 0.00 56 1010.0
20260906040030 28 192 1.6 3.2 0.00 0.00 0.00 56 1010.2
20260906034523 28 192 1.6 3.2 0.00 0.00 0.00 56 1010.1
20260906033022 29 192 0.0 3.2 0.00 0.00 0.00 54 1010.1
20260906031535 30 192 0.0 3.2 0.00 0.00 0.00 53 1009.9
20260906030021 30 192 0.0 3.2 0.00 0.00 0.00 53 1009.8
20260906024521 30 192 1.6 6.4 0.00 0.00 0.00 53 1009.4
20260906023020 30 202 0.0 3.2 0.00 0.00 0.00 51 1009.4
20260906021520 31 202 1.6 4.8 0.00 0.00 0.00 50 1009.2
20260906020026 31 189 1.6 6.4 0.00 0.00 0.00 49 1008.9
20260906014519 31 189 0.0 3.2 0.00 0.00 0.00 49 1008.7
20260906013018 32 189 0.0 3.2 0.00 0.00 0.00 47 1008.5
20260906011518 32 189 1.6 3.2 0.00 0.00 0.00 46 1008.2
20260906010016 32 189 1.6 8.0 0.00 0.00 0.00 45 1008.0
20260906004517 33 187 1.6 6.4 0.00 0.00 0.00 45 1008.0
20260906003023 33 203 3.2 9.7 0.00 0.00 0.00 44 1008.3
20260906001515 35 219 0.0 4.8 0.00 0.00 0.00 41 1008.5
20260906000015 35 203 1.6 8.0 0.00 0.00 0.00 38 1008.4
20260905234515 36 225 4.8 12.9 0.00 0.00 0.00 35 1008.5
20260905233017 37 215 8.0 16.1 0.00 0.00 0.00 35 1008.6
20260905231514 37 232 9.7 16.1 0.00 0.00 0.00 35 1008.3
20260905230013 37 203 4.8 11.3 0.00 0.00 0.00 34 1008.3
20260905224511 37 182 4.8 19.3 0.00 0.00 0.00 35 1008.4
20260905223029 37 223 6.4 19.3 0.00 0.00 0.00 35 1008.2
20260905221529 37 168 12.9 24.1 0.00 0.00 0.00 36 1008.2
20260905220009 37 140 4.8 19.3 0.00 0.00 0.00 35 1007.9
20260905214508 37 244 12.9 20.9 0.00 0.00 0.00 33 1008.1
20260905213008 37 223 8.0 25.7 0.00 0.00 0.00 34 1008.1
20260905211517 37 177 11.3 17.7 0.00 0.00 0.00 35 1008.1
20260905210005 37 144 6.4 20.9 0.00 0.00 0.00 35 1008.5
20260905204604 36 208 8.0 16.1 0.00 0.00 0.00 37 1008.8
20260905203100 37 213 6.4 20.9 0.00 0.00 0.00 37 1008.8
20260905201608 37 254 14.5 20.9 0.00 0.00 0.00 36 1009.4
20260905200123 37 186 8.0 19.3 0.00 0.00 0.00 35 1009.5